Other Surface Observations
Issued by NWS

Home | Current Version | Previous Version | Text Only | Print | Product List | Glossary On
Versions: 1 2 3 4 5 6 7 8 9 10 11 12 13 14 15 16 17 18 19 20 21 22 23 24 25 26 27 28 29 30 31 32 33 34 35 36 37 38 39 40 41 42 43 44 45 46 47 48 49 50
000
SXUS52 KTAE 171618
OSOTAE
OSOTAE
North Florida/South Alabama/Southwest Georgia Weather Roundup
National Weather Service Tallahassee Florida
1200 PM EDT WED SEP 17 2014

Note: "fair" indicates few or no clouds below 12,000 feet with no
significant weather and/or obstructions to visibility.

!FLZ017-115-028-034-025-171700
...North Florida...

CITY           SKY/WX    TMP DP  RH WIND       PRES   REMARKS
TALLAHASSEE    MOSUNNY   85  72  65 CALM      29.94F HX  91
APALACHICOLA   PTSUNNY   86  71  60 E5        29.95S HX  91
PERRY          PTSUNNY   77  72  83 CALM      29.96S
CROSS CITY       N/A     82  72  71 NE3       29.95S
HOMERVILLE     FAIR      86  73  66 CALM      29.95S HX  93
JACKSONVILLE   PTSUNNY   83  74  74 NW6       29.93S
$$

!FLZ112-006-005-002-011-171700
...Florida Panhandle...

CITY           SKY/WX    TMP DP  RH WIND       PRES   REMARKS
MARIANNA       SUNNY     83  75  77 CALM      29.95F HX  90
BONIFAY        FAIR      83  73  72 CALM      29.96
PANAMA CITY NW FAIR      85  73  67 N3        29.95F HX  91
TYNDALL AFB    MOSUNNY   82  76  83 N6        29.95F
TYND DRONE APT FAIR      81  75  82 MISG      29.94F
DE FUNIAK SPR  FAIR      81  73  76 NE3       29.97S
EGLIN AFB      MOSUNNY   83  72  69 E6        29.96F
DESTIN         SUNNY     83  74  74 VRB3      29.96F
HURLBURT       MOSUNNY   84  70  61 SE6       29.95F
CRESTVIEW      SUNNY     84  73  69 CALM      29.98S HX  90
PENSACOLA      SUNNY     82  73  74 E7        29.96S
$$

!ALZ063-066-171700
...South Alabama...

CITY           SKY/WX    TMP DP  RH WIND       PRES   REMARKS
DOTHAN         SUNNY     85  74  69 NE3       29.99F HX  92
OZARK CAIRNS   SUNNY     83  71  67 VRB1      29.96F
FT RUCKER HELI SUNNY     83  72  69 MISG      29.95F
RUCKER HELI 3  FAIR      82  73  73 E3        29.99F
RUCKER HELI 2  FAIR      84  71  65 VRB5      29.95F
FLORALA APT    MOSUNNY   85  72  65 VRB3      29.98F HX  91
ANDALUSIA      MOSUNNY   89  72  56 CALM      29.96F HX  96
TROY           SUNNY     85  71  63 CALM      29.97F HX  90
EUFALA         FAIR      85  70  60 CALM      29.94F
MOBILE         MOSUNNY   84  72  67 VRB3      29.98S
$$

!GAZ120>161-171700
...Southwest and South Central Georgia...

CITY           SKY/WX    TMP DP  RH WIND       PRES   REMARKS
THOMASVILLE      N/A     84  72  65 NE5       29.96F
BAINBRIDGE     SUNNY     86  75  70 E7        29.95F HX  95
MOODY AFB      SUNNY     83  72  69 VRB2      29.94F
VALDOSTA       MOSUNNY   85  72  65 CALM      29.94F HX  91
MOULTRIE       SUNNY     84  73  70 E3        29.96S HX  91
BLAKELY        MOSUNNY   88  73  62 E5          N/A  HX  96
ALBANY         MOSUNNY   86  72  62 E3        29.96F HX  92
TIFTON         FAIR      82  69  66 N3        29.95F
FITZGERALD     FAIR      87  67  51 N3        29.97F
CORDELE        FAIR      85  71  63 CALM      29.96F HX  90
AMERICUS       FAIR      82  70  65 E6        29.97F
$$

!GMZ750-755-770-775-171700
...Coastal and Buoy Obs...

STATION/POSITION TIME  TEMP    WIND        PRES    VSBY  WAVE
                       AIR SEA DIR/SP/G                  HT/PER
                 (UTC) (F)     (DEG/KT/KT) (MB)    (MI)  (FT/S)
KEATON BEACH     1600   81      60/  4/  8 1014.3S
CEDAR KEY        1600   78     130/  5/  6 1014.8S
C TOWER          1600   80      50/  6/  7 1014.3R
APALACHICOLA BUO 1600   81 85   50/  6/  8 1014.5R         2/ 5
PANAMA CITY BUOY 1456   81 85   30/  6/  8 1014.3R         2/ 5
MOBILE BUOY      1458   82 85   80/  2/  2 1015.3R         2/ 5
ORANGE BCH AL BU 1600   80 86   50/  8/ 10 1014.8R         1/ 6
$$



USA.gov is the U.S. government's official web portal to all federal, state and local government web resources and services.